Washington, IN

6:36 AM EST on January 16, 2017 (GMT -0500)
Daviess County

Weather History for KDCY - August, 2014

Change the Weather History Date:

Wednesday, August 20, 2014

  Actual Average (KLWV) Record (KLWV)
Temperature  
Mean Temperature 75 °F -  
Max Temperature 83 °F 83 °F 95 °F (2010)
Min Temperature 67 °F 62 °F 54 °F (2012)
Cooling Degree Days 10    
Growing Degree Days 25 (Base 50)    
Moisture  
Dew Point 72 °F    
Average Humidity 91    
Maximum Humidity 100    
Minimum Humidity 70    
Precipitation  
Precipitation 0.06 in - - ()
Sea Level Pressure  
Sea Level Pressure 29.93 in    
Wind  
Wind Speed 4 mph (WSW)    
Max Wind Speed 16 mph    
Max Gust Speed 22 mph    
Visibility 9 miles    
Events Rain , Thunderstorm    
Averages and records for this station are not official NWS values.
T = Trace of Precipitation, MM = Missing Value Source: NWS Daily Summary

Daily Weather History Graph

Daily Weather History Graph

Search for Another Location

Airport or City:

Trip Planner

Search our weather history database for the weather conditions in past years. The results will help you decide how hot, cold, wet, or windy it might be!

Date:

Astronomy

Aug. 20, 2014 Rise Set
Actual Time 7:06 AM EDT 8:36 PM EDT
Civil Twilight 6:38 AM EDT 9:04 PM EDT
Nautical Twilight 6:05 AM EDT 9:37 PM EDT
Astronomical Twilight 5:29 AM EDT 10:13 PM EDT
Moon 2:47 AM EDT (8/20) 5:19 PM EDT (8/20)
Length of Visible Light 14h 25m
Length of Day
13h 29m
Waning Crescent, 21% of the Moon is Illuminated
Aug 20
Waning Crescent
Aug 25
New
Sep 2
First Quarter
Sep 8
Full
Sep 15
Last Quarter

Hourly Weather History & Observations

Time (EDT) Temp. Heat Index Dew Point Humidity Pressure Visibility Wind Dir Wind Speed Gust Speed Precip Events Conditions
12:15 AM 77.0 °F - 76.1 °F 97% 29.82 in 10.0 mi SW 8.1 mph - N/A   Clear
12:35 AM 76.6 °F - 75.6 °F 96% 29.83 in 10.0 mi SW 4.6 mph - N/A   Clear
12:55 AM 75.2 °F - 75.2 °F 100% 29.84 in 7.0 mi SSW 4.6 mph - N/A   Scattered Clouds
1:35 AM 75.0 °F - 75.0 °F 100% 29.85 in 7.0 mi Calm Calm - N/A   Mostly Cloudy
1:55 AM 75.2 °F - 75.2 °F 100% 29.85 in 10.0 mi SW 4.6 mph - N/A Thunderstorm Scattered Clouds
2:15 AM 74.8 °F - 74.8 °F 100% 29.85 in 10.0 mi SW 4.6 mph - N/A   Scattered Clouds
2:35 AM 74.3 °F - 74.3 °F 100% 29.85 in 10.0 mi SW 5.8 mph - N/A   Clear
2:55 AM 73.8 °F - 73.6 °F 99% 29.85 in 10.0 mi WSW 4.6 mph - N/A   Clear
3:15 AM 73.6 °F - 73.4 °F 99% 29.85 in 10.0 mi WSW 6.9 mph - N/A   Clear
3:35 AM 73.4 °F - 72.9 °F 98% 29.85 in 10.0 mi WSW 5.8 mph - N/A   Clear
3:55 AM 73.0 °F - 72.5 °F 98% 29.85 in 10.0 mi WSW 5.8 mph - N/A   Clear
4:15 AM 72.5 °F - 71.8 °F 98% 29.85 in 10.0 mi WSW 5.8 mph - N/A   Clear
4:35 AM 71.6 °F - 71.2 °F 99% 29.85 in 10.0 mi WSW 3.5 mph - N/A   Clear
4:55 AM 69.8 °F - 69.8 °F 100% 29.85 in 7.0 mi Calm Calm - N/A   Clear
5:15 AM 71.2 °F - 70.9 °F 99% 29.86 in 10.0 mi Calm Calm - N/A   Clear
5:35 AM 69.3 °F - 69.3 °F 100% 29.87 in 7.0 mi Calm Calm - N/A   Clear
5:55 AM 68.9 °F - 68.9 °F 100% 29.87 in 7.0 mi Calm Calm - N/A   Scattered Clouds
6:15 AM 69.1 °F - 69.1 °F 100% 29.88 in 7.0 mi Calm Calm - N/A   Mostly Cloudy
6:35 AM 68.5 °F - 68.5 °F 100% 29.88 in 7.0 mi Calm Calm - N/A   Scattered Clouds
7:15 AM 67.3 °F - 67.3 °F 100% 29.90 in 3.0 mi Calm Calm - N/A   Clear
7:35 AM 67.3 °F - 67.3 °F 100% 29.89 in 5.0 mi Calm Calm - N/A   Clear
7:55 AM 67.8 °F - 67.8 °F 100% 29.89 in 5.0 mi Calm Calm - N/A   Clear
8:15 AM 69.6 °F - 69.6 °F 100% 29.90 in 5.0 mi Calm Calm - N/A   Clear
8:35 AM 72.1 °F - 72.0 °F 99% 29.90 in 10.0 mi Calm Calm - N/A   Clear
8:55 AM 73.4 °F - 72.1 °F 96% 29.91 in 10.0 mi Calm Calm - N/A   Clear
9:15 AM 74.5 °F - 71.6 °F 91% 29.92 in 10.0 mi Calm Calm - N/A   Clear
9:35 AM 75.7 °F - 72.3 °F 89% 29.93 in 10.0 mi Calm Calm - N/A   Scattered Clouds
9:55 AM 77.2 °F - 73.6 °F 89% 29.93 in 10.0 mi West 3.5 mph - N/A   Scattered Clouds
10:15 AM 78.1 °F - 73.2 °F 85% 29.93 in 10.0 mi SW 3.5 mph - N/A   Clear
10:35 AM 79.7 °F - 73.6 °F 81% 29.94 in 10.0 mi Calm Calm - N/A   Clear
10:55 AM 81.1 °F 86.0 °F 72.9 °F 76% 29.95 in 10.0 mi Calm Calm - N/A   Clear
11:15 AM 82.2 °F 87.6 °F 72.9 °F 73% 29.94 in 10.0 mi Calm Calm - N/A   Clear
11:35 AM 82.8 °F 88.2 °F 72.7 °F 71% 29.95 in 10.0 mi West 3.5 mph - N/A   Clear
11:55 AM 83.7 °F 89.7 °F 72.9 °F 70% 29.93 in 10.0 mi NE 3.5 mph - N/A   Clear
12:15 PM 83.3 °F 89.3 °F 73.2 °F 71% 29.95 in 10.0 mi Calm Calm - N/A   Clear
12:35 PM 83.3 °F 89.3 °F 73.0 °F 71% 29.95 in 10.0 mi Calm Calm - N/A   Clear
12:55 PM 81.5 °F 87.2 °F 73.9 °F 78% 29.96 in 10.0 mi Calm Calm - N/A   Clear
1:15 PM 80.2 °F 85.2 °F 74.7 °F 83% 29.99 in 10.0 mi West 5.8 mph - N/A   Clear
1:35 PM 79.7 °F - 75.4 °F 87% 30.00 in 10.0 mi West 5.8 mph - N/A Rain Light Rain
1:55 PM 79.0 °F - 75.9 °F 90% 30.01 in 10.0 mi WNW 5.8 mph - N/A Rain , Thunderstorm Light Thunderstorms and Rain
2:15 PM 77.4 °F - 75.6 °F 94% 30.02 in 10.0 mi NW 8.1 mph - 0.01 in Rain , Thunderstorm Light Thunderstorms and Rain
2:35 PM 76.6 °F - 75.6 °F 96% 30.05 in 10.0 mi WNW 9.2 mph - 0.01 in Rain Light Rain
2:55 PM 75.0 °F - 71.2 °F 88% 30.05 in 10.0 mi NW 16.1 mph 21.9 mph 0.02 in Rain , Thunderstorm Rain
3:15 PM 72.9 °F - 71.6 °F 96% 30.01 in 10.0 mi NW 3.5 mph - 0.02 in Rain Light Rain
3:35 PM 72.7 °F - 72.0 °F 98% 29.97 in 10.0 mi NNE 5.8 mph - 0.03 in Rain Light Rain
3:55 PM 72.9 °F - 72.5 °F 99% 29.97 in 10.0 mi North 9.2 mph - 0.04 in Rain Light Rain
4:10 PM 73.8 °F - 72.1 °F 95% 29.97 in 10.0 mi North 8.1 mph - N/A   Scattered Clouds
4:35 PM 74.3 °F - 69.6 °F 85% 29.95 in 10.0 mi Calm Calm - N/A   Scattered Clouds
4:55 PM 77.4 °F - 70.2 °F 78% 29.94 in 10.0 mi SW 4.6 mph - N/A   Clear
5:15 PM 78.8 °F - 71.1 °F 77% 29.93 in 10.0 mi SSW 5.8 mph - N/A   Clear
5:35 PM 79.2 °F - 71.1 °F 76% 29.94 in 10.0 mi WSW 4.6 mph - N/A   Clear
5:55 PM 79.0 °F - 71.1 °F 77% 29.94 in 10.0 mi SSW 5.8 mph - N/A   Clear
6:15 PM 78.8 °F - 71.4 °F 78% 29.94 in 10.0 mi SSW 4.6 mph - N/A   Clear
6:35 PM 79.0 °F - 72.0 °F 79% 29.94 in 10.0 mi SSW 3.5 mph - N/A   Clear
6:55 PM 78.4 °F - 71.8 °F 80% 29.94 in 10.0 mi SW 4.6 mph - N/A   Clear
7:15 PM 79.0 °F - 71.1 °F 77% 29.95 in 10.0 mi SW 3.5 mph - N/A   Clear
7:35 PM 79.0 °F - 70.9 °F 76% 29.95 in 10.0 mi SSW 3.5 mph - N/A   Clear
7:55 PM 78.3 °F - 71.1 °F 78% 29.95 in 10.0 mi Calm Calm - N/A   Clear
8:15 PM 76.6 °F - 71.6 °F 84% 29.96 in 10.0 mi Calm Calm - N/A   Clear
8:35 PM 74.7 °F - 71.1 °F 88% 29.97 in 10.0 mi Calm Calm - N/A   Clear
8:55 PM 72.7 °F - 70.9 °F 94% 29.97 in 10.0 mi Calm Calm - N/A   Clear
9:15 PM 70.2 °F - 69.8 °F 99% 29.98 in 10.0 mi Calm Calm - N/A   Clear
9:35 PM 71.2 °F - 70.7 °F 98% 30.00 in 10.0 mi Calm Calm - N/A   Clear
9:55 PM 70.9 °F - 70.5 °F 99% 30.00 in 10.0 mi South 4.6 mph - N/A   Clear
10:15 PM 70.7 °F - 70.2 °F 98% 30.01 in 10.0 mi South 3.5 mph - N/A   Clear
10:35 PM 69.8 °F - 69.6 °F 99% 30.03 in 10.0 mi Calm Calm - N/A   Clear
10:55 PM 70.2 °F - 70.2 °F 100% 30.03 in 10.0 mi Calm Calm - N/A   Clear
11:15 PM 70.5 °F - 70.5 °F 100% 30.02 in 10.0 mi Calm Calm - N/A   Clear
11:35 PM 70.2 °F - 70.2 °F 100% 30.01 in 10.0 mi SSE 4.6 mph - N/A   Clear